www.pogodaiklimat.ru
ПОГОДА в Ливан - Спрингфилд
Время
и дата
07:35 07.02
07:55 07.02
08:15 07.02
08:35 07.02
08:55 07.02
09:15 07.02
09:35 07.02
09:55 07.02
10:15 07.02
10:35 07.02
10:55 07.02
11:15 07.02
11:35 07.02
11:55 07.02
12:15 07.02
12:35 07.02
12:55 07.02
13:15 07.02
13:35 07.02
13:55 07.02
14:15 07.02
14:35 07.02
14:55 07.02
15:15 07.02
15:35 07.02
15:55 07.02
16:15 07.02
16:35 07.02
16:55 07.02
17:15 07.02
17:35 07.02
17:55 07.02
18:15 07.02
18:35 07.02
18:55 07.02
19:15 07.02
19:35 07.02
19:55 07.02
20:15 07.02
20:35 07.02
20:55 07.02
21:15 07.02
21:35 07.02
21:55 07.02
22:15 07.02
22:35 07.02
22:55 07.02
23:15 07.02
Ветер
(напр.,м/с)
Видим. Явления Облачность Т
(С)
Тd
(С)
f
(%)
Тe
(С)
Тes
(С)
Комфортность P
(гПа)
Po
(гПа)
Тmin
(С)
Tmax
(С)
R
(мм)
R24
(мм)
S
(см)
Ю 6
{11}
16 км ясно +11.0 0.0 47 +8 +8 989.7
Ю 5
{9}
16 км ясно +10.0 0.0 50 +7 +7 990.0
Ю 6
{9}
16 км ясно +10.0 0.0 50 +7 +7 990.3
Ю 8
{10}
16 км ясно +11.0 0.0 47 +8 +8 990.3
Ю 9
{11}
16 км ясно +11.0 0.0 47 +8 +8 990.3
Ю 8
{11}
16 км ясно +12.0 0.0 44 +9 +9 990.7
Ю 8
{11}
16 км ясно +13.0 0.0 41 +11 +11 990.7
Ю 8
{11}
16 км ясно +13.0 +1.0 44 +10 +11 990.7
Ю 7
{11}
16 км ясно +13.0 +1.0 44 +11 +12 991.0
Ю 7
{10}
16 км ясно +14.0 +2.0 44 +12 +13 991.0
Ю 6
{10}
16 км ясно +15.0 +3.0 44 +14 +15 991.0
Ю 8
{12}
16 км ясно +15.0 +4.0 48 +13 +14 991.0
Ю 7
{12}
16 км ясно +16.0 +5.0 48 +15 +16 991.0
Ю 7
{10}
16 км ясно +17.0 +5.0 45 +16 +18 990.7
ЮЗ 8
{12}
16 км ясно +17.0 +5.0 45 +16 +17 990.7
Ю 9
{11}
16 км ясно +17.0 +6.0 48 +16 +16 990.7
Ю 8
{11}
16 км 2/0 3300 m
[Ac]
+18.0 +6.0 45 +17 +18 990.3
Ю 9
{11}
16 км ясно +17.0 +7.0 52 +16 +16 990.3
Ю 9
{13}
16 км ясно +17.0 +7.0 52 +16 +16 989.7
Ю 8
{13}
16 км 2/2 1500 м +17.0 +7.0 52 +16 +17 989.4
Ю 11
{13}
16 км ясно +18.0 +8.0 52 +17 +17 988.7
Ю 8
{13}
16 км ясно +18.0 +8.0 52 +17 +18 989.0
Ю 8
{13}
16 км 2/2 1350 м +18.0 +8.0 52 +17 +18 989.0
Ю 10
{13}
16 км ясно +18.0 +8.0 52 +17 +17 989.0
ЮЗ 7
{9}
16 км ясно +17.0 +8.0 55 +16 +17 989.4
ЮЗ 6
{9}
16 км ясно +17.0 +8.0 55 +16 +18 989.4
ЮЗ 5
{8}
16 км ясно +17.0 +8.0 55 +16 +18 989.7
ЮЗ 4
{7}
16 км ясно +17.0 +8.0 55 +17 +18 989.7
ЮЗ 4 16 км ясно +17.0 +8.0 55 +17 +18 990.0
ЮЗ 4 16 км ясно +17.0 +8.0 55 +17 +17 990.0
ЮЗ 2 16 км ясно +16.0 +8.0 59 +16 +17 990.3
ЮЗ 2 16 км 2/2 1500 м +16.0 +8.0 59 +16 +17 990.7
ЮЗ 2 16 км ясно +15.0 +8.0 63 +15 +15 990.7
ЮЗ 2 16 км ясно +14.0 +8.0 67 +14 +14 990.7
Ю 2 16 км ясно +14.0 +8.0 67 +14 +14 991.0
ЮЗ 2 16 км 2/0 3000 m
[Ac]
+14.0 +8.0 67 +14 +14 991.0
Ю 2 16 км ясно +14.0 +8.0 67 +14 +14 991.3
Ю 2 16 км ясно +14.0 +8.0 67 +14 +14 991.3
Ю 2 16 км ясно +14.0 +8.0 67 +14 +14 991.0
ЮЗ 2 16 км ясно +14.0 +8.0 67 +14 +14 991.3
СЗ 3 16 км 2/0 2100 m
[Ac]
+13.0 +8.0 72 +12 +12 992.0
СЗ 3 16 км ясно +13.0 +9.0 77 +12 +12 992.0
СЗ 3 16 км ясно +13.0 +9.0 77 +12 +12 992.0
штиль 0 16 км ясно +13.0 +9.0 77 +13 +13 992.0
штиль 0 16 км ясно +13.0 +9.0 77 +13 +13 992.0
Ю 2 16 км 2/2 720 м +12.0 +10.0 88 +11 +11 991.7
штиль 0 16 км ясно +12.0 +10.0 88 +11 +11 991.7
штиль 0 16 км 8/8 780 м +12.0 +10.0 88 +11 +11 992.0
Местоположение метеостанции Lebanon-Springfield Airport: широта 37.6352 долгота -85.2418 высота над уровнем моря 258 м.
В архиве по умолчанию представлена погода в Ливан - Спрингфилд за последние 1-2 суток. Обновление информации о фактической погоде в базе происходит ежечасно! Архивные данные за месяц целиком и за предыдущие месяцы Вы можете получить, выбрав интересующий диапазон дат из раскрывающегося списка и нажав кнопку "Ввод!".
Внимание! Архив погоды МЕТАР в базе сайта по станциям, не включенным в климатический монитор, хранится не более 60 дней. Нет смысла пытаться выбрать более раннюю дату.
*Определитесь, кто Вы:
Внимание! Время в таблицах - местное (без учета летнего времени). Для получения всемирного времени необходимо вычесть поправку, которая равна -5 ч.
Смотрите также архив погоды в соседних городах и на ближайших метеорологических станциях:
Партнеры нашего сайта:      
Пояснения к столбцам:
  • Ветер - указаны скорость ветра в м/с - средняя за 10 мин, порывы в срок и между сроками (в фигурных скобках) и направление, откуда дует ветер: С - северный,
  • СВ - северо-восточный, В - восточный, ЮВ - юго-восточный, Ю - южный, ЮЗ - юго-западный, З - западный, СЗ - северо-западный.
  • Видимость - горизонтальная дальность видимости в метрах или километрах. При видимости от 1 до 10 км при отсутствии осадков обычно наблюдается дымка, при ухудшении видимости до 1 км и менее - туман. В сухую погоду видимость может ухудшаться дымом, пылью или мглою.
  • Явления - указаны атмосферные явления, наблюдавшиеся в срок или в последний час перед сроком; фигурными скобками обозначены явления, наблюдавшиеся между сроками (за 1-3 часа до срока); квадратными скобками обозначены град или гололедные отложения с указанием их диаметра в мм.
  • Облачность - указаны через наклонную черту общая и нижняя облачность в баллах и высота нижней границы облаков в метрах; квадратными скобками обозначены формы облаков: Ci - перистые, Cs - перисто-слоистые, Cc - перисто-кучевые, Ac - высококучевые, As - высокослоистые, Sc - слоисто-кучевые, Ns - слоисто-дождевые, Cu - кучевые, Cb - кучево-дождевые. Подробнее классификацию облаков см. в Атласе облаков (PDF).
  • T - Температура воздуха - температура, измеренная на высоте 2 м над землей.
  • Td - Температура точки росы - температура, при понижении до которой содержащийся в воздухе водяной пар достигнет насыщения.
  • f - Относительная влажность воздуха - влажноcть воздуха, измеренная на высоте 2 м над землей.
  • Te - Эффективная температура - температура, которую ощущает одетый по сезону человек в тени. Характеристика душности погоды. При расчете учитывается влияние влажности воздуха и скорости ветра на теплоощущения человека.
  • Tes - Эффективная температура на солнце - температура, которую ощущает человек, с поправкой на солнечный нагрев. Характеристика знойности погоды. Зависит от высоты солнца над горизонтом, облачности и скорости ветра. Ночью, в пасмурную погоду, а также при ветре 12 м/с и более поправка равна нулю.
  • P - Атмосферное давление - приведенное к уровню моря атмосферное давление.
  • Po - Атмосферное давление - измеренное на уровне метеостанции атмосферное давление.
  • Tmin - Минимальная температура - минимум температуры воздуха на высоте 2 м над землей.
  • Tmax - Максимальная температура - максимум температуры воздуха на высоте 2 м над землей.
  • R - Количество осадков - Количество выпавших осадков за период времени, мм. При наведении курсора мыши на число - период времени, за который выпало указанное количество осадков.
  • R24 - Количество осадков - Количество выпавших осадков за 24 часа, мм.
  • S - Снежный покров - Высота снежного покрова, см. При наведении курсора мыши на число - состояние снежного покрова и степень покрытия местности в баллах.